Flag for Bermuda Weather past 2 weeks in Hamilton, Bermuda

Now
82 °F

Passing clouds.


Feels Like: 91 °F
Forecast: 80 / 85 °F
Wind: 6 mph from South

Location: Bermuda

Current Time: Aug 5, 2015 at 2:30:28 AM

Latest Report: Aug 5, 2015 at 12:55 AM


Visibility: N/A

Pressure: 30.24 "Hg

Humidity: 84%

Dew point: 77 °F

Location of HamiltonLocation

Historic Weather in Hamilton — Graph

°F

Hamilton temperature yesterday

Maximum temperature yesterday: 86 °F (at 1:55 PM)
Minimum temperature yesterday: 81 °F (at 3:55 AM)
Average temperature yesterday: 83 °F

Past Weeks' High & Low Weather Summary

 TemperatureHumidityPressure
High86 °F (Jul 21, 12:55 PM)100% (Jul 25, 11:55 AM)30.27 "Hg (Jul 25, 11:55 AM)
Low73 °F (Jul 26, 5:55 AM)59% (Jul 22, 12:55 PM)29.86 "Hg (Jul 25, 3:55 AM)
Average81 °F80%30.07 "Hg
* Reported Jul 21 12:55 AM — Aug 5 12:55 AM, Hamilton, Weather by CustomWeather, © 2015

Note: Actual official high and low records may vary slightly from our data, if they occured in-between our weather recording intervals... More about our weather records

Advertising

Hamilton weather history for previous 24 hours

 ConditionsComfort  
Time TempWeatherWind HumidityBarometerVisibility
12:55 AM
Wed, Aug 5
82 °FPassing clouds.6 mph84%30.24 "HgN/A
11:55 PM
Tue, Aug 4
82 °FPassing clouds.7 mph79%30.24 "HgN/A
10:55 PM82 °FPassing clouds.7 mph79%30.24 "HgN/A
9:55 PM82 °FPartly cloudy.6 mph84%30.24 "HgN/A
8:55 PM82 °FBroken clouds.10 mph79%30.24 "HgN/A
7:55 PM82 °FScattered clouds.8 mph79%30.24 "HgN/A
6:55 PM84 °FBroken clouds.8 mph74%30.24 "HgN/A
5:55 PM84 °FScattered clouds.9 mph74%30.24 "HgN/A
4:55 PM86 °FScattered clouds.10 mph70%30.21 "HgN/A
3:55 PM84 °FScattered clouds.13 mph74%30.21 "HgN/A
2:55 PM84 °FScattered clouds.13 mph70%30.24 "HgN/A
1:55 PM86 °FScattered showers. Broken clouds.13 mph70%30.24 "HgN/A
12:55 PM84 °FBroken clouds.10 mph74%30.24 "HgN/A
11:55 AM84 °FBroken clouds.12 mph79%30.27 "HgN/A
10:55 AM82 °FThunderstorms. Broken clouds.10 mph79%30.27 "HgN/A
9:55 AM84 °FThunderstorms. Broken clouds.7 mph74%30.24 "HgN/A
8:55 AM82 °FScattered showers. Broken clouds.10 mph79%30.24 "HgN/A
7:55 AM82 °FScattered showers. Scattered clouds.9 mph79%30.24 "HgN/A
6:55 AM81 °FPassing clouds.9 mph79%30.21 "HgN/A
5:55 AM81 °FPartly cloudy.13 mph79%30.21 "HgN/A
4:55 AM81 °FPassing clouds.12 mph79%30.21 "HgN/A
3:55 AM81 °FPassing clouds.16 mph79%30.21 "HgN/A
2:55 AM82 °FPassing clouds.13 mph79%30.21 "HgN/A
Weather by CustomWeather, © 2015

See weather overviewHow to use our weather pages